TimeMST,TemperatureF,Dew PointF,Humidity,Sea Level PressureIn,VisibilityMPH,Wind Direction,Wind SpeedMPH,Gust SpeedMPH,PrecipitationIn,Events,Conditions,WindDirDegrees,DateUTC
12:53 AM,25.0,19.9,81,30.53,10.0,WSW,8.1,-,N/A,,Clear,240,2013-03-02 07:53:00
1:53 AM,25.0,19.9,81,30.52,10.0,WSW,8.1,-,N/A,,Clear,240,2013-03-02 08:53:00
2:53 AM,25.0,21.0,85,30.52,10.0,SW,5.8,-,N/A,,Clear,230,2013-03-02 09:53:00
3:53 AM,26.1,21.0,81,30.50,10.0,SSW,5.8,-,N/A,,Clear,210,2013-03-02 10:53:00
5:53 AM,25.0,21.0,85,30.51,10.0,South,5.8,-,N/A,,Clear,180,2013-03-02 12:53:00
6:53 AM,24.1,19.9,84,30.51,10.0,SSW,5.8,-,N/A,,Clear,210,2013-03-02 13:53:00
8:53 AM,27.0,21.9,81,30.50,10.0,SSW,5.8,-,N/A,,Clear,200,2013-03-02 15:53:00
9:53 AM,30.0,21.9,72,30.48,10.0,SSW,5.8,-,N/A,,Clear,210,2013-03-02 16:53:00
10:53 AM,33.1,23.0,66,30.42,10.0,SSW,5.8,-,N/A,,Clear,210,2013-03-02 17:53:00
11:53 AM,36.0,24.1,62,30.40,10.0,SW,5.8,-,N/A,,Clear,220,2013-03-02 18:53:00
12:53 PM,39.9,23.0,51,30.34,10.0,SW,3.5,-,N/A,,Clear,230,2013-03-02 19:53:00
1:53 PM,42.1,24.1,49,30.29,10.0,Variable,4.6,-,N/A,,Clear,0,2013-03-02 20:53:00
3:53 PM,45.0,24.1,44,30.23,10.0,Calm,Calm,-,N/A,,Clear,0,2013-03-02 22:53:00
4:53 PM,43.0,25.0,49,30.23,10.0,West,4.6,-,N/A,,Clear,280,2013-03-02 23:53:00
5:53 PM,39.9,26.1,58,30.22,10.0,West,4.6,-,N/A,,Clear,270,2013-03-03 00:53:00
6:53 PM,39.0,25.0,57,30.22,10.0,West,9.2,-,N/A,,Clear,280,2013-03-03 01:53:00
7:53 PM,37.9,23.0,55,30.21,10.0,SSW,3.5,-,N/A,,Clear,200,2013-03-03 02:53:00
8:53 PM,37.0,23.0,57,30.18,10.0,Calm,Calm,-,N/A,,Clear,0,2013-03-03 03:53:00
9:53 PM,37.0,21.0,52,30.15,10.0,Calm,Calm,-,N/A,,Clear,0,2013-03-03 04:53:00
10:53 PM,32.0,19.9,61,30.15,10.0,WSW,8.1,-,N/A,,Clear,240,2013-03-03 05:53:00
11:53 PM,32.0,21.0,64,30.10,10.0,SW,9.2,-,N/A,,Clear,220,2013-03-03 06:53:00